Location: La Silve
(44.2414°N, 5.8889°E)
Time: 08:32:38
(UTC+00:00)

AQUARIUS - Pass Details

Date: 01 December 2020
Orbit: 651 x 652 km, 98.0° (Epoch: 25 January)

Event Time Altitude Azimuth Distance (km) Brightness Sun altitude
Rises 16:49:10 0° 158° (SSE) 2,959 7.6 -8.9°
Reaches altitude 10° 16:51:23 10° 155° (SSE) 2,053 6.7 -9.3°
Maximum altitude 16:55:49 66° 74° (ENE) 714 4.1 -10.0°
Drops below altitude 10° 17:00:17 10° 352° (N) 2,069 6.6 -10.8°
Sets 17:02:31 0° 350° (N) 2,984 7.5 -11.2°
